RH
21 21 22 21 20 18 16 14 13 11 10 10 12 16 21 23 27 30 36 43 46 49
29 29 28 27 24 21 20 18 16 14 13 11 10 9 9 12 17 23 27 33 36 40
30 30 31 31 29 27 25 22 20 19 17 17 16 15 13 12 13 16 19 23 26 26
30 30 30 32 33 31 30 27 24 22 21 21 21 21 20 19 19 18 19 20 21 20
28 29 30 33 34 35 33 31 28 26 25 24 24 24 22 22 22 21 20 20 20 19
29 30 33 36 37 38 37 36 32 30 29 28 29 27 25 24 24 23 22 22 21 21
31 35 37 38 41 42 41 41 39 34 32 32 32 32 28 26 26 25 26 25 25 26
34 38 40 41 42 44 48 47 45 42 35 33 35 35 33 30 30 29 27 27 28 30
41 45 46 48 49 49 50 52 48 44 38 34 34 36 34 31 32 32 29 27 28 29
44 45 49 54 56 57 57 57 55 50 44 39 40 42 37 30 32 34 30 29 30 30
48 48 46 50 56 61 61 62 60 57 58 50 49 48 47 37 38 38 33 34 33 29
56 55 56 54 60 63 63 64 71 62 60 54 53 54 52 44 42 43 40 38 34 30
60 58 56 58 69 76 70 73 79 68 64 61 63 59 57 52 45 40 37 33 34 36
65 65 63 60 68 77 76 82 84 75 73 71 71 62 60 57 46 39 33 35 39 41